Regional Weather Roundup
Issued by NWS Green Bay, WI

Home | Current Version | Previous Version | Graphics & Text | Print | Product List | Glossary Off
Versions: 1 2 3 4 5 6 7 8 9 10 11 12 13 14 15 16 17 18 19 20 21 22 23 24 25 26 27 28 29 30 31 32 33 34 35 36 37 38 39 40 41 42 43 44 45 46 47 48 49 50

000
ASUS43 KGRB 272100
RWRGRB

NORTH-CENTRAL AND NORTHEAST WISCONSIN REGIONAL WEATHER ROUNDUP
NATIONAL WEATHER SERVICE GREEN BAY WI
400 PM CDT SAT MAY 27 2017

WIZ005-009-010>012-018-019-272200-
NORTH CENTRAL WISCONSIN

CITY           SKY/WX    TMP DP  RH WIND       PRES   REMARKS
IRONWOOD       PTSUNNY   69  45  41 NW9       29.86R
MANITOWISH WTR NOT AVBL
ARBOR VITAE    NOT AVBL
EAGLE RIVER    NOT AVBL
LAND O LAKES   NOT AVBL
RHINELANDER    MOSUNNY   73  47  39 W16G22    29.86S
PHILLIPS       CLOUDY    67  46  47 W7        29.88F
ANTIGO         NOT AVBL
TOMAHAWK       NOT AVBL
MERRILL        CLOUDY    71  49  46 W13G18    29.88S
$$

WIZ013-073-272200-
NORTHEAST WISCONSIN

CITY           SKY/WX    TMP DP  RH WIND       PRES   REMARKS
IRON MOUNTAIN  MOSUNNY   79  43  27 W10       29.80S
MARINETTE      NOT AVBL
$$

WIZ017-030-035>037-045-272200-
CENTRAL WISCONSIN

CITY           SKY/WX    TMP DP  RH WIND       PRES   REMARKS
MEDFORD        NOT AVBL
WAUSAU         CLOUDY    72  50  45 NW13      29.85F
MOSINEE        MOSUNNY   73  52  46 W8G17     29.88F
MARSHFIELD     CLOUDY    71  49  45 NW15      29.86F
WISC RAPIDS    MOSUNNY   75  51  43 W10       29.86F
STEVENS POINT  NOT AVBL
WAUPACA        NOT AVBL
SHAWANO        NOT AVBL
CLINTONVILLE   CLOUDY    77  48  36 W10G16    29.84F
WAUTOMA        NOT AVBL
$$

WIZ038-039-048-051-272200-
FOX VALLEY

CITY           SKY/WX    TMP DP  RH WIND       PRES   REMARKS
NWS GREEN BAY  PTSUNNY   75  59  57 S9        29.85F
APPLETON       PTSUNNY   73  54  49 SW10      29.85S
OSHKOSH        CLOUDY    75  58  55 SW10G17   29.85F
FOND DU LAC    CLOUDY    74  56  53 W9        29.86F
$$

WIZ022-050-052-272200-
EAST CENTRAL WISCONSIN

CITY           SKY/WX    TMP DP  RH WIND       PRES   REMARKS
EPHRAIM        NOT AVBL
WASHINGTON ISL NOT AVBL
STURGEON BAY   MOSUNNY   69  52  54 S16       29.86F
MANITOWOC      NOT AVBL
SHEBOYGAN      MOSUNNY   70  56  61 S9        29.87F
$$

LMZ563-521-522-541>543-272200-
LAKESHORE

STATION/POSITION TIME  TEMP    WIND        PRES    VSBY  WAVE
                       AIR SEA DIR/SP/G                  HT/PER
                 (UTC) (F)     (DEG/KT/KT) (MB)    (MI)  (FT/S)
SHEBOYGAN LKSHOR 2000   52     170/ 11/ 11 1012.0F
KEWAUNEE LKSHORE 2030   54     170/  7/  9 1011.3F
NORTHPORT PIER   2020   65     150/ 11/ 17 1010.5
N MID LAKE BUOY  1950   47 43  200/  8/ 10 1012.9F         0
CHAMBERS ISLAND  2040   73     190/  4/ 13 1010.2S
MENOMINEE LKSHOR 2030          160/ 13/ 16 1009.6R
$$




USA.gov is the U.S. government's official web portal to all federal, state and local government web resources and services.